Location: The Stocker AstroScience Center
(25.7579°N, 80.3725°W)
Time: 05:19:39

ISS - Pass Details

Date: 26 February 2018
Orbit: 403 x 406 km, 51.6° (Epoch: 23 March)

Event Time Altitude Azimuth Distance (km) Brightness Sun altitude
Rises 04:47:30 0° 199° (SSW) 2,311 - -27.8°
Reaches altitude 10° 04:49:47 10° 186° (S) 1,454 - -27.3°
Maximum altitude 04:52:34 26° 127° (SE) 829 - -26.6°
Exits shadow 04:53:18 24° 104° (ESE) 886 -1.5 -26.5°
Drops below altitude 10° 04:55:22 10° 68° (ENE) 1,458 -0.1 -26.0°
Sets 04:57:39 0° 55° (NE) 2,320 0.9 -25.5°
